Regional Weather Roundup
Issued by NWS

Home | Current Version | Previous Version | Text Only | Print | Product List | Glossary On
Versions: 1 2 3 4 5 6 7 8 9 10 11 12 13 14 15 16 17 18 19 20 21 22 23 24 25 26 27
000
ASUS45 KBOU 161507
RWRCO

WEATHER ROUNDUP FOR COLORADO
NATIONAL WEATHER SERVICE DENVER/BOULDER CO
900 AM MDT WED AUG 16 2017

NOTE: "FAIR" INDICATES FEW OR NO CLOUDS BELOW 12000 FEET WITH NO
SIGNIFICANT WEATHER AND/OR OBSTRUCTIONS TO VISIBILITY.

COZ001>005-013-030-031-161600-
...NORTHWEST COLORADO...

CITY           SKY/WX    TMP DP  RH WIND       PRES   REMARKS
CRAIG          FAIR      54  47  77 CALM      30.23R
HAYDEN         FAIR      53  47  79 E5        30.26R
MEEKER         FAIR      56  46  69 CALM      30.22R
RABBIT EARS PA FAIR      43  37  81 W6        30.41R
STEAMBOAT SPGS FAIR      50  46  84 CALM      30.24S
WALDEN         FAIR      52  41  66 CALM      30.29S
$$

COZ006>008-011-161600-
...WEST CENTRAL VALLEYS...

CITY           SKY/WX    TMP DP  RH WIND       PRES   REMARKS
GRAND JUNCTION FAIR      68  47  46 SE8       30.12R
MONTROSE       FAIR      62  38  40 CALM      30.19R
EAGLE          FAIR      58  44  60 E5        30.24S
RIFLE          FAIR      63  45  51 CALM      30.17R
DELTA          NOT AVBL
NUCLA          FAIR      63  32  31 CALM      30.22S
$$

COZ017>023-064>068-161600-
...SOUTHWEST COLORADO...

CITY           SKY/WX    TMP DP  RH WIND       PRES   REMARKS
DURANGO        FAIR      57  34  41 N3        30.24R
CORTEZ         FAIR      60  39  45 CALM      30.19R
PAGOSA SPRINGS FAIR      56  33  40 CALM      30.30R
TELLURIDE      FAIR     N/A N/A N/A CALM      30.38R
WOLF CREEK PAS FAIR      43  28  56 CALM      30.55S
$$

COZ009-010-012-014-032>034-037-058>063-161600-
...CENTRAL COLORADO...

CITY           SKY/WX    TMP DP  RH WIND       PRES   REMARKS
ASPEN          FAIR      56  38  50 CALM      30.26S
BUENA VISTA    FAIR      59  37  44 E5        30.26R
COPPER MTN     PTSUNNY   41  36  81 NW7       30.48R
BERTHOUD PASS  HAZE      32  28  86 NW17G23   30.47R VSB<1/4 WCI  21
COTTONWOOD PAS FAIR      57  32  38 W5        30.37R
GUNNISON       FAIR      55  36  48 NE3       30.29R
KREMMLING      PTSUNNY   59  45  58 CALM      30.28S
LEADVILLE      FAIR      51  34  52 N9        30.35R
MONARCH PASS   FAIR      39  28  65 W17G26    30.58R
SALIDA         FAIR      61  37  41 CALM      30.31S
SUNLIGHT       FAIR      45  34  65 W3        30.46R
WILKERSON PASS FAIR      45  32  61 W5        30.46R
$$

COZ069>075-161600-
...SAN LUIS VALLEY/SANGRE DE CRISTO MOUNTAINS...

CITY           SKY/WX    TMP DP  RH WIND       PRES   REMARKS
ALAMOSA        FAIR      58  38  47 VRB3      30.26R
DEL NORTE      FAIR      58  34  40 SW8       30.28S
LA VETA PASS   NOT AVBL
SAGUACHE       FAIR      59  34  38 W6        30.28S
$$

COZ035-036-038>040-161600-
...NORTHERN COLORADO FRONT RANGE...

CITY           SKY/WX    TMP DP  RH WIND       PRES   REMARKS
DENVER INTL AP PTSUNNY   63  52  67 NE6       30.13R
DMNS CITY PARK   N/A     66  48  52 E8G15     30.13S
AURORA         PTSUNNY   62  49  63 NE3       30.15R
FRONT RANGE AP FAIR      63  52  67 N9        30.15R
ERIE MUNI ARPT PTSUNNY   65  51  61 E5        30.17S
BOULDER MUN AP FAIR      64  50  59 SE3       30.13R
CENTENNIAL     PTSUNNY   63  48  58 NE6       30.15S
BROOMFIELD     FAIR      64  52  63 SE5       30.15S
FORT COLLINS   CLOUDY    62  53  72 S7        30.12R
LONGMONT       FAIR      67  53  60 SE5       30.13R
$$

COZ041-046-047-076>085-087-088-161600-
...PIKES PEAK/PALMER DIVIDE AND SOUTHERN FOOTHILLS...

CITY           SKY/WX    TMP DP  RH WIND       PRES   REMARKS
COLO. SPRINGS  FAIR      63  47  55 SE7       30.18R
A. F. ACADEMY  FAIR      62  48  59 S9        30.18R
SCHRIEVER AFB  FAIR      60  44  55 N5        30.18R
CHEYENNE MTN   FAIR      58  49  72 SE12      30.16R
ELLICOTT       FAIR     N/A N/A N/A W6        30.16R
FALCON         FAIR      58  45  61 CALM      30.22R
FORT CARSON    PTSUNNY   64  48  56 SE5       30.16R
LIMON          FAIR      61  53  75 NW15      30.11R
MONUMENT HILL  FAIR      54  46  76 CALM      30.22R
CANON CITY     SUNNY     66  54  63 MISG      30.14R
WALSENBURG     FAIR      68  50  52 E5        30.17S
TRINIDAD       FAIR      65  48  54 SE7       30.16S
$$

COZ042>045-048>051-090-091-161600-
...NORTHEAST COLORADO...

CITY           SKY/WX    TMP DP  RH WIND       PRES   REMARKS
GREELEY ARPT   FAIR      62  53  72 NW5       30.11R
AKRON          FAIR      62  55  77 W10       30.07R
BURLINGTON     FAIR      63  57  81 W8        30.04R
WRAY           NOT AVBL
YUMA           FAIR      64  55  72 W14       30.03S
STERLING       FAIR      66  55  68 NW12      30.03R
HOLYOKE        FAIR      66  59  77 NW12      30.02R
FORT MORGAN    FAIR      65  51  61 N10       30.09R
$$

COZ086-089-092>099-161600-
...SOUTHEAST COLORADO...

CITY           SKY/WX    TMP DP  RH WIND       PRES   REMARKS
PUEBLO         FAIR      69  49  48 S8        30.10S
LA JUNTA       FAIR      69  53  56 NW6       30.09R
LAMAR          FAIR      69  56  62 W10       30.03R
SPRINGFIELD      N/A     66  57  72 NW13      30.07R
$$




USA.gov is the U.S. government's official web portal to all federal, state and local government web resources and services.